Погода в Новой Маке

Россия / Республика Дагестан     41°46′16″N   48°21′31″E
темп.,
°C
ветер,
м/с
пор.,
м/с
влажн.,
%
обл.,
%
осадки,
мм/ч
давл.,
гПа
погр.,
м
25 июня, сб
сб2500:00+18сз2280100 0.0 100855
03:00+16з118827 0.0 100911
06:00+20сз117211 0.0 1009188
09:00+24ссв325812 0.0 1008943
12:00+27св645013 0.0 10081314
15:00+26св655667 0.0 10071016
18:00+22ссв4369100 0.0 1008490
21:00+19з2284100 0.0 100915
26 июня, вс
вс2600:00+20зюз1176100 0.0 100814
03:00+20в1176100 0.0 100815
06:00+22ю1170100 0.0 1008151
09:00+26ссв2152100 0.0 1007934
12:00+28св5346100 0.0 10061171
15:00+28ссв654383 0.0 10051230
18:00+26с5647100 0.0 1005652
21:00+22зюз346399 0.3 100748
27 июня, пн
пн2700:00+21зюз337136 0.6 100734
03:00+20зюз33680 0.6 100622
06:00+23ююз11620 0.0 1008125
09:00+29с34400 0.0 10071028
12:00+32с97350 0.0 10071745
15:00+32с1010380 0.0 10061568
18:00+29с911430 0.0 1006992
21:00+22юз21680 0.0 100715
28 июня, вт
вт2800:00+21зюз11720 0.0 100712
03:00+21юз22651 0.0 100616
06:00+24зюз11480 0.0 1007154
09:00+29ссв54340 0.0 10061113
12:00+31с108300 0.0 10061584
15:00+29с1010390 0.0 10071160
18:00+24с78580 0.0 1009707
21:00+20з22740 0.0 101123
29 июня, ср
ср2900:00+20зюз22740 0.0 101121
03:00+20зюз32734 0.0 101118
06:00+24зсз25460 0.0 1011390
09:00+29ссв55260 0.0 10111624
12:00+30ссв87250 0.0 10111869
15:00+29св76300 0.0 10111529
18:00+24св44510 0.0 1012604
21:00+18зюз00910 0.0 101411